Regional Weather Roundup
Issued by NWS New Orleans/Baton Rouge, LA

Home | Current Version | Previous Version | Graphics & Text | Print | Product List | Glossary On
Versions: 1 2 3 4 5 6 7 8 9 10 11 12 13 14 15 16 17 18 19 20 21 22 23 24 25 26 27 28 29 30 31 32 33 34 35 36 37 38 39 40 41 42 43 44 45 46 47 48 49 50
588
ASUS44 KLIX 191101
RWRLIX
NEW ORLEANS REGIONAL WEATHER ROUNDUP
NATIONAL WEATHER SERVICE NEW ORLEANS LA
600 AM CDT SAT APR 19 2014

NOTE: "FAIR" INDICATES FEW OR NO CLOUDS BELOW 12,000 FEET WITH NO
      SIGNIFICANT WEATHER AND/OR OBSTRUCTIONS TO VISIBILITY.
      SKY/WX - SKY CONDITION AND SIGNIFICANT WEATHER.
      TMP - AIR TEMPERATURE.     DP    - DEWPOINT TEMPERATURE.
      RH  - RELATIVE HUMIDITY.   PRES  - PRESSURE.
      HI  - HEAT INDEX.          WCI   - WIND CHILL INDEX.

*  THESE STATIONS ARE NOT NWS OR FAA STATIONS AND ARE NOT UNDER
   NWS QUALITY CONTROL.

LAZ038-040-048-061>063-065>067-069-191200-
SOUTHEAST LOUISIANA

CITY           SKY/WX    TMP DP  RH WIND       PRES   REMARKS
N.O. AUDUBON   NOT AVBL
N.O. INTL ARPT PTCLDY    56  52  86 N6        30.13R
N.O. LAKEFRONT CLEAR     58  52  80 N12       30.14R
N.O. DOWNTOWN*   N/A     57  48  72 N3        30.13S
SLIDELL        CLEAR     53  50  89 CALM      30.12R
BATON ROUGE    CLEAR     53  50  89 CALM      30.16R
BOOTHVILLE     CLEAR     58  55  90 N7        30.11R
BELLE CHASSE   PTCLDY    51  49  92 CALM      30.12R
BOGALUSA*        N/A     51  48  89 N3        30.13R
GALLIANO*      NOT AVBL
NEW ROADS*     NOT AVBL
GONZALES*        N/A     53  53 100 CALM      30.15R
HAMMOND*       NOT AVBL
HOUMA*         CLEAR     54  52  94 NW5       30.14R
PORT FOURCHON* SUNNY     59  55  88 N6        30.15R

$$

MSZ070-080>082-191200-
SOUTHERN MISSISSIPPI

CITY           SKY/WX    TMP DP  RH WIND       PRES   REMARKS
MCCOMB         CLEAR     54  50  86 NE5       30.14R
GULFPORT       CLEAR     57  51  80 N8        30.08R
BILOXI         CLEAR     55  52  88 N10       30.08S
PASCAGOULA     CLEAR     54  52  93 N9        30.08R

$$

COASTAL OBSERVATIONS
LAKE AND NEARSHORE STATIONS

STATION/POSITION TIME  TEMP    WIND        PRES    WAVE
                       AIR SEA DIR/SP/G            HT/PER
                 (UTC) (F)     (DEG/KT/KT) (MB)    (FT/S)
PASCAGOULA       1000   55     350/  9/ 14 1017.8
WAVELAND YACHT   1000   56 65   20/ 10/ 12 1017.8
GRAND ISLE       1000   60 66  360/  8/  9 1020.2
SOUTHWEST PASS   1000   61 58  360/  9/ 11 1019.5
NEW CANAL        1000   60 64   20/ 10/ 11 1020.4
SHELL BEACH      1000   59 62  360/ 11/ 14 1019.5

OFFSHORE STATIONS

STATION/POSITION TIME  TEMP    WIND        PRES    WAVE
                       AIR SEA DIR/SP/G            HT/PER
                 (UTC) (F)     (DEG/KT/KT) (MB)    (FT/S)
64 S DAUPHIN ISL 1035   62 70   10/ 25/ 29 1017.8

$$




USA.gov is the U.S. government's official web portal to all federal, state and local government web resources and services.